This is the latest recevied weather packets stored in our database for station/object ZL2IH. If no packets are shown the sender has not sent any weather packets the latest 10 day(s).
| Time | Temp. | Humidity | Pressure | Rain* | Wind** | Luminosity | Snow |
|---|---|---|---|---|---|---|---|
| 1777588219 | 11.11° C | 100% | 1037.7 hPa | 0 mm | - | - | - |
| 1777587618 | 11.11° C | 100% | 1038 hPa | 0 mm | - | - | - |
| 1777585818 | 9.44° C | 100% | 1038 hPa | 0 mm | - | - | - |
| 1777582219 | 7.78° C | 100% | 1037.5 hPa | 0 mm | - | - | - |
| 1777581018 | 7.22° C | 100% | 1037.3 hPa | 0 mm | - | - | - |
| 1777580418 | 6.67° C | 100% | 1037 hPa | 0 mm | - | - | - |
| 1777576218 | 5.56° C | 100% | 1036.2 hPa | 0 mm | - | - | - |
| 1777573817 | 5.56° C | 100% | 1036.1 hPa | 0 mm | - | - | - |
| 1777572017 | 6.11° C | 100% | 1036 hPa | 0 mm | - | - | - |
| 1777569617 | 6.11° C | 100% | 1036.2 hPa | 0 mm | - | - | - |
| 1777566617 | 6.67° C | 100% | 1036.3 hPa | 0 mm | - | - | - |
| 1777563617 | 7.22° C | 100% | 1036.4 hPa | 0 mm | - | - | - |
| 1777555837 | 7.22° C | 100% | 1036.8 hPa | 0 mm | - | - | - |
| 1777555217 | 7.78° C | 100% | 1036.7 hPa | 0 mm | - | - | - |
| 1777553417 | 7.78° C | 100% | 1036.7 hPa | 0 mm | - | - | - |
| 1777548016 | 8.33° C | 100% | 1036.5 hPa | 0 mm | - | - | - |
| 1777546217 | 8.89° C | 100% | 1036.3 hPa | 0 mm | - | - | - |
| 1777545617 | 8.89° C | 100% | 1036.3 hPa | 0 mm | - | - | - |
| 1777541438 | 9.44° C | 100% | 1035.9 hPa | 0 mm | - | - | - |
| 1777540217 | 10° C | 100% | 1035.8 hPa | 0 mm | - | - | - |
| 1777539617 | 10° C | 100% | 1035.7 hPa | 0 mm | - | - | - |
| 1777538417 | 10° C | 100% | 1035.5 hPa | 0 mm | - | - | - |
| 1777537818 | 10° C | 100% | 1035.4 hPa | 0 mm | - | - | - |
| 1777536618 | 10° C | 100% | 1035.3 hPa | 0 mm | - | - | - |
| 1777534218 | 10.56° C | 100% | 1035 hPa | 0 mm | - | - | - |
* Rain latest hour (hover to see other rain measurements)
** Current wind speed in m/s (hover to see current wind gust speed)